owner,sensor,date,latitude,longitude,vertical_datum,sea_water_temperature,qcFlag
Beacon,ioos:station:wmo:42881:2,2023-02-01T00:08:00Z,26.9126,-91.5714,30.0,22.7,11111222
Beacon,ioos:station:wmo:42881:2,2023-02-01T00:18:00Z,26.9126,-91.5714,30.0,22.7,11111222
Beacon,ioos:station:wmo:42881:2,2023-02-01T00:28:00Z,26.9126,-91.5714,30.0,22.7,11111222
Beacon,ioos:station:wmo:42881:2,2023-02-01T00:38:00Z,26.9126,-91.5714,30.0,22.8,11111222
Beacon,ioos:station:wmo:42881:2,2023-02-01T00:48:00Z,26.9126,-91.5714,30.0,23.0,11111222
Beacon,ioos:station:wmo:42881:2,2023-02-01T00:58:00Z,26.9126,-91.5714,30.0,23.0,11111222
Beacon,ioos:station:wmo:42881:2,2023-02-01T01:08:00Z,26.9126,-91.5714,30.0,23.0,11111222
Beacon,ioos:station:wmo:42881:2,2023-02-01T01:18:00Z,26.9126,-91.5714,30.0,22.9,11111222
Beacon,ioos:station:wmo:42881:2,2023-02-01T01:28:00Z,26.9126,-91.5714,30.0,22.8,11111222
Beacon,ioos:station:wmo:42881:2,2023-02-01T01:38:00Z,26.9126,-91.5714,30.0,22.7,11111222
Beacon,ioos:station:wmo:42881:2,2023-02-01T01:48:00Z,26.9126,-91.5714,30.0,22.7,11111222
Beacon,ioos:station:wmo:42881:2,2023-02-01T01:58:00Z,26.9126,-91.5713,30.0,22.7,11111222
Beacon,ioos:station:wmo:42881:2,2023-02-01T02:08:00Z,26.9126,-91.5713,30.0,22.7,11111222
Beacon,ioos:station:wmo:42881:2,2023-02-01T02:18:00Z,26.9126,-91.5713,30.0,22.7,11111222
Beacon,ioos:station:wmo:42881:2,2023-02-01T02:28:00Z,26.9125,-91.5714,30.0,22.6,11111222
Beacon,ioos:station:wmo:42881:2,2023-02-01T02:38:00Z,26.9125,-91.5713,30.0,22.6,11111222
Beacon,ioos:station:wmo:42881:2,2023-02-01T02:48:00Z,26.9125,-91.5713,30.0,22.7,11111222
Beacon,ioos:station:wmo:42881:2,2023-02-01T02:58:00Z,26.9125,-91.5713,30.0,22.6,11111222
Beacon,ioos:station:wmo:42881:2,2023-02-01T03:08:00Z,26.9125,-91.5713,30.0,22.6,11111222
Beacon,ioos:station:wmo:42881:2,2023-02-01T03:18:00Z,26.9126,-91.5713,30.0,22.6,11111222
Beacon,ioos:station:wmo:42881:2,2023-02-01T03:28:00Z,26.9126,-91.5713,30.0,22.7,11111222
Beacon,ioos:station:wmo:42881:2,2023-02-01T03:38:00Z,26.9127,-91.5714,30.0,22.8,11111222
Beacon,ioos:station:wmo:42881:2,2023-02-01T03:48:00Z,26.9127,-91.5714,30.0,22.8,11111222
Beacon,ioos:station:wmo:42881:2,2023-02-01T03:58:00Z,26.9126,-91.5714,30.0,22.8,11111222
Beacon,ioos:station:wmo:42881:2,2023-02-01T04:08:00Z,26.9126,-91.5714,30.0,22.9,11111222
Beacon,ioos:station:wmo:42881:2,2023-02-01T04:18:00Z,26.9126,-91.5714,30.0,22.9,11111222
Beacon,ioos:station:wmo:42881:2,2023-02-01T04:28:00Z,26.9126,-91.5714,30.0,22.9,11111222
Beacon,ioos:station:wmo:42881:2,2023-02-01T04:38:00Z,26.9126,-91.5714,30.0,22.9,11111222
Beacon,ioos:station:wmo:42881:2,2023-02-01T04:48:00Z,26.9126,-91.5714,30.0,22.8,11111222
Beacon,ioos:station:wmo:42881:2,2023-02-01T04:58:00Z,26.9126,-91.5715,30.0,22.8,11111222
Beacon,ioos:station:wmo:42881:2,2023-02-01T05:08:00Z,26.9126,-91.5715,30.0,22.8,11111222
Beacon,ioos:station:wmo:42881:2,2023-02-01T05:18:00Z,26.9127,-91.5714,30.0,22.8,11111222
Beacon,ioos:station:wmo:42881:2,2023-02-01T05:28:00Z,26.9127,-91.5714,30.0,22.8,11111222
Beacon,ioos:station:wmo:42881:2,2023-02-01T05:38:00Z,26.9127,-91.5714,30.0,22.8,11111222
Beacon,ioos:station:wmo:42881:2,2023-02-01T05:48:00Z,26.9127,-91.5714,30.0,22.8,11111222
Beacon,ioos:station:wmo:42881:2,2023-02-01T05:58:00Z,26.9126,-91.5713,30.0,22.8,11111222
Beacon,ioos:station:wmo:42881:2,2023-02-01T06:08:00Z,26.9126,-91.5713,30.0,22.7,11111222
Beacon,ioos:station:wmo:42881:2,2023-02-01T06:18:00Z,26.9127,-91.5713,30.0,22.8,11111222
Beacon,ioos:station:wmo:42881:2,2023-02-01T06:28:00Z,26.9127,-91.5713,30.0,22.8,11111222
Beacon,ioos:station:wmo:42881:2,2023-02-01T06:38:00Z,26.9128,-91.5712,30.0,22.7,11111222
Beacon,ioos:station:wmo:42881:2,2023-02-01T06:48:00Z,26.9127,-91.5712,30.0,22.7,11111222
Beacon,ioos:station:wmo:42881:2,2023-02-01T06:58:00Z,26.9127,-91.5712,30.0,22.6,11111222
Beacon,ioos:station:wmo:42881:2,2023-02-01T07:08:00Z,26.9127,-91.5712,30.0,22.6,11111222
Beacon,ioos:station:wmo:42881:2,2023-02-01T07:18:00Z,26.9127,-91.5712,30.0,22.6,11111222
Beacon,ioos:station:wmo:42881:2,2023-02-01T07:28:00Z,26.9127,-91.5712,30.0,22.6,11111222
Beacon,ioos:station:wmo:42881:2,2023-02-01T07:38:00Z,26.9127,-91.5712,30.0,22.6,11111222
Beacon,ioos:station:wmo:42881:2,2023-02-01T07:48:00Z,26.9127,-91.5712,30.0,22.6,11111222
Beacon,ioos:station:wmo:42881:2,2023-02-01T07:58:00Z,26.9127,-91.5712,30.0,22.6,11111222
Beacon,ioos:station:wmo:42881:2,2023-02-01T08:08:00Z,26.9127,-91.5712,30.0,22.6,11111222
Beacon,ioos:station:wmo:42881:2,2023-02-01T08:18:00Z,26.9126,-91.5713,30.0,22.6,11111222
Beacon,ioos:station:wmo:42881:2,2023-02-01T08:28:00Z,26.9126,-91.5713,30.0,22.8,11111222
Beacon,ioos:station:wmo:42881:2,2023-02-01T08:38:00Z,26.9125,-91.5713,30.0,22.7,11111222
Beacon,ioos:station:wmo:42881:2,2023-02-01T08:48:00Z,26.9124,-91.5721,30.0,22.9,11111222
Beacon,ioos:station:wmo:42881:2,2023-02-01T08:58:00Z,26.9123,-91.5719,30.0,22.6,11111222
Beacon,ioos:station:wmo:42881:2,2023-02-01T09:08:00Z,26.9123,-91.5719,30.0,22.8,11111222
Beacon,ioos:station:wmo:42881:2,2023-02-01T09:18:00Z,26.9125,-91.5721,30.0,22.7,11111222
Beacon,ioos:station:wmo:42881:2,2023-02-01T09:28:00Z,26.9126,-91.5714,30.0,22.8,11111222
Beacon,ioos:station:wmo:42881:2,2023-02-01T09:38:00Z,26.9126,-91.5714,30.0,22.7,11111222
Beacon,ioos:station:wmo:42881:2,2023-02-01T09:48:00Z,26.9125,-91.5710,30.0,22.6,11111222
Beacon,ioos:station:wmo:42881:2,2023-02-01T09:58:00Z,26.9125,-91.5713,30.0,22.6,11111222
Beacon,ioos:station:wmo:42881:2,2023-02-01T10:08:00Z,26.9125,-91.5713,30.0,22.5,11111222
Beacon,ioos:station:wmo:42881:2,2023-02-01T10:18:00Z,26.9125,-91.5710,30.0,22.4,11111222
Beacon,ioos:station:wmo:42881:2,2023-02-01T10:28:00Z,26.9125,-91.5712,30.0,22.4,11111222
Beacon,ioos:station:wmo:42881:2,2023-02-01T10:38:00Z,26.9126,-91.5714,30.0,22.4,11111222
Beacon,ioos:station:wmo:42881:2,2023-02-01T10:48:00Z,26.9126,-91.5714,30.0,22.4,11111222
Beacon,ioos:station:wmo:42881:2,2023-02-01T10:58:00Z,26.9126,-91.5714,30.0,22.4,11111222
Beacon,ioos:station:wmo:42881:2,2023-02-01T11:08:00Z,26.9128,-91.5713,30.0,22.4,11111222
Beacon,ioos:station:wmo:42881:2,2023-02-01T11:18:00Z,26.9128,-91.5713,30.0,22.5,11111222
Beacon,ioos:station:wmo:42881:2,2023-02-01T11:28:00Z,26.9128,-91.5713,30.0,22.5,11111222
Beacon,ioos:station:wmo:42881:2,2023-02-01T11:38:00Z,26.9131,-91.5712,30.0,22.4,11111222
Beacon,ioos:station:wmo:42881:2,2023-02-01T11:48:00Z,26.9131,-91.5712,30.0,22.4,11111222
Beacon,ioos:station:wmo:42881:2,2023-02-01T11:58:00Z,26.9126,-91.5711,30.0,22.4,11111222
Beacon,ioos:station:wmo:42881:2,2023-02-01T12:08:00Z,26.9126,-91.5711,30.0,22.5,11111222
Beacon,ioos:station:wmo:42881:2,2023-02-01T12:18:00Z,26.9126,-91.5711,30.0,22.4,11111222
Beacon,ioos:station:wmo:42881:2,2023-02-01T12:28:00Z,26.9127,-91.5714,30.0,22.4,11111222
Beacon,ioos:station:wmo:42881:2,2023-02-01T12:38:00Z,26.9127,-91.5714,30.0,22.4,11111222
Beacon,ioos:station:wmo:42881:2,2023-02-01T12:48:00Z,26.9126,-91.5714,30.0,22.4,11111222
Beacon,ioos:station:wmo:42881:2,2023-02-01T12:58:00Z,26.9127,-91.5713,30.0,22.4,11111222
Beacon,ioos:station:wmo:42881:2,2023-02-01T13:08:00Z,26.9127,-91.5713,30.0,22.5,11111222
Beacon,ioos:station:wmo:42881:2,2023-02-01T13:18:00Z,26.9127,-91.5713,30.0,22.4,11111222
Beacon,ioos:station:wmo:42881:2,2023-02-01T13:28:00Z,26.9127,-91.5713,30.0,22.4,11111222
Beacon,ioos:station:wmo:42881:2,2023-02-01T13:38:00Z,26.9126,-91.5713,30.0,22.4,11111222
Beacon,ioos:station:wmo:42881:2,2023-02-01T13:48:00Z,26.9126,-91.5713,30.0,22.4,11111222
Beacon,ioos:station:wmo:42881:2,2023-02-01T13:58:00Z,26.9127,-91.5713,30.0,22.3,11111222
Beacon,ioos:station:wmo:42881:2,2023-02-01T14:08:00Z,26.9125,-91.5713,30.0,22.3,11111222
Beacon,ioos:station:wmo:42881:2,2023-02-01T14:18:00Z,26.9125,-91.5713,30.0,22.9,11111222
Beacon,ioos:station:wmo:42881:2,2023-02-01T14:28:00Z,26.9126,-91.5712,30.0,22.8,11111222
Beacon,ioos:station:wmo:42881:2,2023-02-01T14:38:00Z,26.9126,-91.5713,30.0,22.8,11111222
Beacon,ioos:station:wmo:42881:2,2023-02-01T14:48:00Z,26.9127,-91.5713,30.0,23.1,11111222
Beacon,ioos:station:wmo:42881:2,2023-02-01T14:58:00Z,26.9127,-91.5713,30.0,23.1,11111222
Beacon,ioos:station:wmo:42881:2,2023-02-01T15:08:00Z,26.9128,-91.5713,30.0,22.9,11111222
Beacon,ioos:station:wmo:42881:2,2023-02-01T15:18:00Z,26.9127,-91.5714,30.0,22.8,11111222
Beacon,ioos:station:wmo:42881:2,2023-02-01T15:28:00Z,26.9127,-91.5713,30.0,22.8,11111222
Beacon,ioos:station:wmo:42881:2,2023-02-01T15:38:00Z,26.9127,-91.5713,30.0,22.7,11111222
Beacon,ioos:station:wmo:42881:2,2023-02-01T15:48:00Z,26.9125,-91.5713,30.0,22.6,11111222
Beacon,ioos:station:wmo:42881:2,2023-02-01T15:58:00Z,26.9126,-91.5714,30.0,22.7,11111222
Beacon,ioos:station:wmo:42881:2,2023-02-01T16:08:00Z,26.9127,-91.5713,30.0,22.6,11111222
Beacon,ioos:station:wmo:42881:2,2023-02-01T16:18:00Z,26.9127,-91.5713,30.0,22.6,11111222
Beacon,ioos:station:wmo:42881:2,2023-02-01T16:28:00Z,26.9127,-91.5714,30.0,22.5,11111222
Beacon,ioos:station:wmo:42881:2,2023-02-01T16:38:00Z,26.9127,-91.5714,30.0,22.4,11111222
Beacon,ioos:station:wmo:42881:2,2023-02-01T16:48:00Z,26.9127,-91.5714,30.0,22.4,11111222
Beacon,ioos:station:wmo:42881:2,2023-02-01T16:58:00Z,26.9127,-91.5714,30.0,22.3,11111222
Beacon,ioos:station:wmo:42881:2,2023-02-01T17:08:00Z,26.9127,-91.5714,30.0,22.3,11111222
Beacon,ioos:station:wmo:42881:2,2023-02-01T17:18:00Z,26.9126,-91.5713,30.0,22.2,11111222
Beacon,ioos:station:wmo:42881:2,2023-02-01T17:28:00Z,26.9126,-91.5713,30.0,22.2,11111222
Beacon,ioos:station:wmo:42881:2,2023-02-01T17:38:00Z,26.9126,-91.5713,30.0,22.2,11111222
Beacon,ioos:station:wmo:42881:2,2023-02-01T17:48:00Z,26.9126,-91.5713,30.0,22.2,11111222
Beacon,ioos:station:wmo:42881:2,2023-02-01T17:58:00Z,26.9126,-91.5712,30.0,22.3,11111222
Beacon,ioos:station:wmo:42881:2,2023-02-01T18:08:00Z,26.9128,-91.5713,30.0,22.4,11111222
Beacon,ioos:station:wmo:42881:2,2023-02-01T18:18:00Z,26.9128,-91.5713,30.0,22.4,11111222
Beacon,ioos:station:wmo:42881:2,2023-02-01T18:28:00Z,26.9128,-91.5713,30.0,22.4,11111222
Beacon,ioos:station:wmo:42881:2,2023-02-01T18:38:00Z,26.9128,-91.5713,30.0,22.4,11111222
Beacon,ioos:station:wmo:42881:2,2023-02-01T18:48:00Z,26.9128,-91.5713,30.0,22.4,11111222
Beacon,ioos:station:wmo:42881:2,2023-02-01T18:58:00Z,26.9128,-91.5713,30.0,22.4,11111222
Beacon,ioos:station:wmo:42881:2,2023-02-01T19:08:00Z,26.9128,-91.5713,30.0,22.4,11111222
Beacon,ioos:station:wmo:42881:2,2023-02-01T19:18:00Z,26.9127,-91.5713,30.0,22.4,11111222
Beacon,ioos:station:wmo:42881:2,2023-02-01T19:28:00Z,26.9127,-91.5713,30.0,22.4,11111222
Beacon,ioos:station:wmo:42881:2,2023-02-01T19:38:00Z,26.9127,-91.5714,30.0,22.4,11111222
Beacon,ioos:station:wmo:42881:2,2023-02-01T19:48:00Z,26.9126,-91.5714,30.0,22.4,11111222
Beacon,ioos:station:wmo:42881:2,2023-02-01T19:58:00Z,26.9126,-91.5713,30.0,22.4,11111222
Beacon,ioos:station:wmo:42881:2,2023-02-01T20:08:00Z,26.9124,-91.5712,30.0,22.3,11111222
Beacon,ioos:station:wmo:42881:2,2023-02-01T20:18:00Z,26.9125,-91.5712,30.0,22.3,11111222
Beacon,ioos:station:wmo:42881:2,2023-02-01T20:28:00Z,26.9125,-91.5712,30.0,22.4,11111222
Beacon,ioos:station:wmo:42881:2,2023-02-01T20:38:00Z,26.9126,-91.5712,30.0,22.4,11111222
Beacon,ioos:station:wmo:42881:2,2023-02-01T20:48:00Z,26.9126,-91.5712,30.0,22.5,11111222
Beacon,ioos:station:wmo:42881:2,2023-02-01T20:58:00Z,26.9126,-91.5712,30.0,22.4,11111222
Beacon,ioos:station:wmo:42881:2,2023-02-01T21:08:00Z,26.9126,-91.5712,30.0,22.3,11111222
Beacon,ioos:station:wmo:42881:2,2023-02-01T21:18:00Z,26.9126,-91.5712,30.0,22.3,11111222
Beacon,ioos:station:wmo:42881:2,2023-02-01T21:28:00Z,26.9126,-91.5712,30.0,22.4,11111222
Beacon,ioos:station:wmo:42881:2,2023-02-01T21:38:00Z,26.9125,-91.5712,30.0,22.4,11111222
Beacon,ioos:station:wmo:42881:2,2023-02-01T21:48:00Z,26.9127,-91.5711,30.0,22.4,11111222
Beacon,ioos:station:wmo:42881:2,2023-02-01T21:58:00Z,26.9127,-91.5711,30.0,22.4,11111222
Beacon,ioos:station:wmo:42881:2,2023-02-01T22:08:00Z,26.9126,-91.5711,30.0,22.5,11111222
Beacon,ioos:station:wmo:42881:2,2023-02-01T22:18:00Z,26.9126,-91.5711,30.0,22.6,11111222
Beacon,ioos:station:wmo:42881:2,2023-02-01T22:28:00Z,26.9126,-91.5711,30.0,22.6,11111222
Beacon,ioos:station:wmo:42881:2,2023-02-01T22:38:00Z,26.9126,-91.5712,30.0,22.6,11111222
Beacon,ioos:station:wmo:42881:2,2023-02-01T22:48:00Z,26.9125,-91.5712,30.0,22.7,11111222
Beacon,ioos:station:wmo:42881:2,2023-02-01T22:58:00Z,26.9125,-91.5711,30.0,22.8,11111222
Beacon,ioos:station:wmo:42881:2,2023-02-01T23:08:00Z,26.9126,-91.5712,30.0,22.8,11111222
Beacon,ioos:station:wmo:42881:2,2023-02-01T23:18:00Z,26.9126,-91.5712,30.0,22.8,11111222
Beacon,ioos:station:wmo:42881:2,2023-02-01T23:28:00Z,26.9126,-91.5713,30.0,22.8,11111222
Beacon,ioos:station:wmo:42881:2,2023-02-01T23:38:00Z,26.9126,-91.5713,30.0,22.7,11111222
Beacon,ioos:station:wmo:42881:2,2023-02-01T23:48:00Z,26.9126,-91.5713,30.0,22.7,11111222
Beacon,ioos:station:wmo:42881:2,2023-02-01T23:58:00Z,26.9126,-91.5713,30.0,22.7,11111222
Beacon,ioos:station:wmo:42881:2,2023-02-02T00:08:00Z,26.9125,-91.5713,30.0,22.6,11111222
Beacon,ioos:station:wmo:42881:2,2023-02-02T00:18:00Z,26.9125,-91.5713,30.0,22.7,11111222
Beacon,ioos:station:wmo:42881:2,2023-02-02T00:28:00Z,26.9125,-91.5713,30.0,22.8,11111222
Beacon,ioos:station:wmo:42881:2,2023-02-02T00:38:00Z,26.9126,-91.5713,30.0,22.7,11111222
Beacon,ioos:station:wmo:42881:2,2023-02-02T00:48:00Z,26.9126,-91.5713,30.0,22.7,11111222
Beacon,ioos:station:wmo:42881:2,2023-02-02T00:58:00Z,26.9126,-91.5713,30.0,22.7,11111222
Beacon,ioos:station:wmo:42881:2,2023-02-02T01:08:00Z,26.9126,-91.5713,30.0,22.7,11111222
Beacon,ioos:station:wmo:42881:2,2023-02-02T01:18:00Z,26.9126,-91.5713,30.0,22.8,11111222
Beacon,ioos:station:wmo:42881:2,2023-02-02T01:28:00Z,26.9126,-91.5713,30.0,22.9,11111222
Beacon,ioos:station:wmo:42881:2,2023-02-02T01:38:00Z,26.9126,-91.5713,30.0,22.9,11111222
Beacon,ioos:station:wmo:42881:2,2023-02-02T01:48:00Z,26.9126,-91.5713,30.0,22.9,11111222
Beacon,ioos:station:wmo:42881:2,2023-02-02T01:58:00Z,26.9126,-91.5713,30.0,22.9,11111222
Beacon,ioos:station:wmo:42881:2,2023-02-02T02:08:00Z,26.9126,-91.5713,30.0,22.9,11111222
Beacon,ioos:station:wmo:42881:2,2023-02-02T02:18:00Z,26.9125,-91.5713,30.0,22.9,11111222
Beacon,ioos:station:wmo:42881:2,2023-02-02T02:28:00Z,26.9125,-91.5713,30.0,22.9,11111222
Beacon,ioos:station:wmo:42881:2,2023-02-02T02:38:00Z,26.9126,-91.5712,30.0,22.9,11111222
Beacon,ioos:station:wmo:42881:2,2023-02-02T02:48:00Z,26.9126,-91.5711,30.0,22.9,11111222
Beacon,ioos:station:wmo:42881:2,2023-02-02T02:58:00Z,26.9126,-91.5711,30.0,22.9,11111222
Beacon,ioos:station:wmo:42881:2,2023-02-02T03:08:00Z,26.9126,-91.5711,30.0,22.9,11111222
Beacon,ioos:station:wmo:42881:2,2023-02-02T03:18:00Z,26.9126,-91.5711,30.0,23.0,11111222
Beacon,ioos:station:wmo:42881:2,2023-02-02T03:28:00Z,26.9126,-91.5711,30.0,23.0,11111222
Beacon,ioos:station:wmo:42881:2,2023-02-02T03:38:00Z,26.9126,-91.5711,30.0,23.0,11111222
Beacon,ioos:station:wmo:42881:2,2023-02-02T03:48:00Z,26.9126,-91.5711,30.0,23.1,11111222
Beacon,ioos:station:wmo:42881:2,2023-02-02T03:58:00Z,26.9126,-91.5712,30.0,23.3,11111222
Beacon,ioos:station:wmo:42881:2,2023-02-02T04:08:00Z,26.9126,-91.5712,30.0,23.2,11111222
Beacon,ioos:station:wmo:42881:2,2023-02-02T04:18:00Z,26.9126,-91.5712,30.0,23.3,11111222
Beacon,ioos:station:wmo:42881:2,2023-02-02T04:28:00Z,26.9126,-91.5712,30.0,23.2,11111222
Beacon,ioos:station:wmo:42881:2,2023-02-02T04:38:00Z,26.9126,-91.5714,30.0,23.2,11111222
Beacon,ioos:station:wmo:42881:2,2023-02-02T04:48:00Z,26.9126,-91.5714,30.0,23.3,11111222
Beacon,ioos:station:wmo:42881:2,2023-02-02T04:58:00Z,26.9126,-91.5714,30.0,23.2,11111222
Beacon,ioos:station:wmo:42881:2,2023-02-02T05:08:00Z,26.9127,-91.5713,30.0,23.3,11111222
Beacon,ioos:station:wmo:42881:2,2023-02-02T05:18:00Z,26.9126,-91.5713,30.0,23.3,11111222
Beacon,ioos:station:wmo:42881:2,2023-02-02T05:28:00Z,26.9126,-91.5713,30.0,23.4,11111222
Beacon,ioos:station:wmo:42881:2,2023-02-02T05:38:00Z,26.9125,-91.5714,30.0,23.4,11111222
Beacon,ioos:station:wmo:42881:2,2023-02-02T05:48:00Z,26.9125,-91.5714,30.0,23.3,11111222
Beacon,ioos:station:wmo:42881:2,2023-02-02T05:58:00Z,26.9125,-91.5714,30.0,23.3,11111222
Beacon,ioos:station:wmo:42881:2,2023-02-02T06:08:00Z,26.9126,-91.5712,30.0,23.3,11111222
Beacon,ioos:station:wmo:42881:2,2023-02-02T06:18:00Z,26.9127,-91.5712,30.0,23.4,11111222
Beacon,ioos:station:wmo:42881:2,2023-02-02T06:28:00Z,26.9127,-91.5712,30.0,23.4,11111222
Beacon,ioos:station:wmo:42881:2,2023-02-02T06:38:00Z,26.9128,-91.5712,30.0,23.4,11111222
Beacon,ioos:station:wmo:42881:2,2023-02-02T06:48:00Z,26.9128,-91.5712,30.0,23.3,11111222
Beacon,ioos:station:wmo:42881:2,2023-02-02T06:58:00Z,26.9127,-91.5712,30.0,23.3,11111222
Beacon,ioos:station:wmo:42881:2,2023-02-02T07:08:00Z,26.9127,-91.5712,30.0,23.3,11111222
Beacon,ioos:station:wmo:42881:2,2023-02-02T07:18:00Z,26.9128,-91.5711,30.0,23.4,11111222
Beacon,ioos:station:wmo:42881:2,2023-02-02T07:28:00Z,26.9128,-91.5712,30.0,23.5,11111222
Beacon,ioos:station:wmo:42881:2,2023-02-02T07:38:00Z,26.9128,-91.5712,30.0,23.6,11111222
Beacon,ioos:station:wmo:42881:2,2023-02-02T07:48:00Z,26.9128,-91.5712,30.0,23.5,11111222
Beacon,ioos:station:wmo:42881:2,2023-02-02T07:58:00Z,26.9127,-91.5713,30.0,23.6,11111222
Beacon,ioos:station:wmo:42881:2,2023-02-02T08:08:00Z,26.9126,-91.5713,30.0,23.5,11111222
Beacon,ioos:station:wmo:42881:2,2023-02-02T08:18:00Z,26.9126,-91.5713,30.0,23.6,11111222
Beacon,ioos:station:wmo:42881:2,2023-02-02T08:28:00Z,26.9126,-91.5713,30.0,23.6,11111222
Beacon,ioos:station:wmo:42881:2,2023-02-02T08:38:00Z,26.9126,-91.5713,30.0,23.6,11111222
Beacon,ioos:station:wmo:42881:2,2023-02-02T08:48:00Z,26.9126,-91.5713,30.0,23.6,11111222
Beacon,ioos:station:wmo:42881:2,2023-02-02T08:58:00Z,26.9126,-91.5713,30.0,23.7,11111222
Beacon,ioos:station:wmo:42881:2,2023-02-02T09:08:00Z,26.9126,-91.5712,30.0,23.6,11111222
Beacon,ioos:station:wmo:42881:2,2023-02-02T09:18:00Z,26.9126,-91.5712,30.0,23.7,11111222
Beacon,ioos:station:wmo:42881:2,2023-02-02T09:28:00Z,26.9126,-91.5712,30.0,23.7,11111222
Beacon,ioos:station:wmo:42881:2,2023-02-02T09:38:00Z,26.9126,-91.5712,30.0,23.7,11111222
Beacon,ioos:station:wmo:42881:2,2023-02-02T09:48:00Z,26.9125,-91.5711,30.0,23.7,11111222
Beacon,ioos:station:wmo:42881:2,2023-02-02T09:58:00Z,26.9125,-91.5711,30.0,23.7,11111222
Beacon,ioos:station:wmo:42881:2,2023-02-02T10:08:00Z,26.9125,-91.5711,30.0,23.7,11111222
Beacon,ioos:station:wmo:42881:2,2023-02-02T10:18:00Z,26.9127,-91.5711,30.0,23.7,11111222
Beacon,ioos:station:wmo:42881:2,2023-02-02T10:28:00Z,26.9127,-91.5711,30.0,23.6,11111222
Beacon,ioos:station:wmo:42881:2,2023-02-02T10:38:00Z,26.9127,-91.5711,30.0,23.7,11111222
Beacon,ioos:station:wmo:42881:2,2023-02-02T10:48:00Z,26.9126,-91.5714,30.0,23.7,11111222
Beacon,ioos:station:wmo:42881:2,2023-02-02T10:58:00Z,26.9126,-91.5714,30.0,23.7,11111222
Beacon,ioos:station:wmo:42881:2,2023-02-02T11:08:00Z,26.9126,-91.5714,30.0,23.7,11111222
Beacon,ioos:station:wmo:42881:2,2023-02-02T11:18:00Z,26.9126,-91.5713,30.0,23.7,11111222
Beacon,ioos:station:wmo:42881:2,2023-02-02T11:28:00Z,26.9126,-91.5713,30.0,23.7,11111222
Beacon,ioos:station:wmo:42881:2,2023-02-02T11:38:00Z,26.9127,-91.5713,30.0,23.7,11111222
Beacon,ioos:station:wmo:42881:2,2023-02-02T11:48:00Z,26.9126,-91.5713,30.0,23.7,11111222
Beacon,ioos:station:wmo:42881:2,2023-02-02T11:58:00Z,26.9126,-91.5713,30.0,23.8,11111222
Beacon,ioos:station:wmo:42881:2,2023-02-02T12:08:00Z,26.9126,-91.5713,30.0,23.7,11111222
Beacon,ioos:station:wmo:42881:2,2023-02-02T12:18:00Z,26.9126,-91.5712,30.0,23.7,11111222
Beacon,ioos:station:wmo:42881:2,2023-02-02T12:28:00Z,26.9126,-91.5713,30.0,23.8,11111222
Beacon,ioos:station:wmo:42881:2,2023-02-02T12:38:00Z,26.9126,-91.5712,30.0,23.8,11111222
Beacon,ioos:station:wmo:42881:2,2023-02-02T12:48:00Z,26.9126,-91.5712,30.0,23.8,11111222
Beacon,ioos:station:wmo:42881:2,2023-02-02T12:58:00Z,26.9126,-91.5713,30.0,23.8,11111222
Beacon,ioos:station:wmo:42881:2,2023-02-02T13:08:00Z,26.9126,-91.5713,30.0,23.8,11111222
Beacon,ioos:station:wmo:42881:2,2023-02-02T13:18:00Z,26.9126,-91.5713,30.0,23.8,11111222
Beacon,ioos:station:wmo:42881:2,2023-02-02T13:28:00Z,26.9127,-91.5713,30.0,23.8,11111222
Beacon,ioos:station:wmo:42881:2,2023-02-02T13:38:00Z,26.9127,-91.5713,30.0,23.8,11111222
Beacon,ioos:station:wmo:42881:2,2023-02-02T13:48:00Z,26.9126,-91.5713,30.0,23.8,11111222
Beacon,ioos:station:wmo:42881:2,2023-02-02T13:58:00Z,26.9126,-91.5713,30.0,23.8,11111222
Beacon,ioos:station:wmo:42881:2,2023-02-02T14:08:00Z,26.9126,-91.5713,30.0,23.8,11111222
Beacon,ioos:station:wmo:42881:2,2023-02-02T14:18:00Z,26.9126,-91.5713,30.0,23.8,11111222
Beacon,ioos:station:wmo:42881:2,2023-02-02T14:28:00Z,26.9126,-91.5712,30.0,23.8,11111222
Beacon,ioos:station:wmo:42881:2,2023-02-02T14:38:00Z,26.9126,-91.5712,30.0,23.8,11111222
Beacon,ioos:station:wmo:42881:2,2023-02-02T14:48:00Z,26.9126,-91.5712,30.0,23.8,11111222
Beacon,ioos:station:wmo:42881:2,2023-02-02T14:58:00Z,26.9126,-91.5712,30.0,23.8,11111222
Beacon,ioos:station:wmo:42881:2,2023-02-02T15:08:00Z,26.9126,-91.5712,30.0,23.8,11111222
Beacon,ioos:station:wmo:42881:2,2023-02-02T15:18:00Z,26.9127,-91.5713,30.0,23.8,11111222
Beacon,ioos:station:wmo:42881:2,2023-02-02T15:28:00Z,26.9127,-91.5713,30.0,23.8,11111222
Beacon,ioos:station:wmo:42881:2,2023-02-02T15:38:00Z,26.9127,-91.5713,30.0,23.8,11111222
Beacon,ioos:station:wmo:42881:2,2023-02-02T15:48:00Z,26.9127,-91.5713,30.0,23.8,11111222
Beacon,ioos:station:wmo:42881:2,2023-02-02T15:58:00Z,26.9126,-91.5713,30.0,23.8,11111222
Beacon,ioos:station:wmo:42881:2,2023-02-02T16:08:00Z,26.9127,-91.5713,30.0,23.9,11111222
Beacon,ioos:station:wmo:42881:2,2023-02-02T16:18:00Z,26.9127,-91.5713,30.0,23.9,11111222
Beacon,ioos:station:wmo:42881:2,2023-02-02T16:28:00Z,26.9127,-91.5713,30.0,23.8,11111222
